Regional Weather Roundup
Issued by NWS

Home | Current Version | Previous Version | Graphics & Text | Print | Product List | Glossary On
Versions: 1 2 3 4 5 6 7 8 9 10 11 12 13 14 15 16 17 18 19 20 21 22 23 24 25 26 27
000
ASUS45 KBOI 180510
RWRID
WEATHER ROUNDUP FOR IDAHO
NATIONAL WEATHER SERVICE BOISE ID
1100 PM MDT THU APR 17 2014

NOTE: "FAIR" INDICATES FEW OR NO CLOUDS BELOW 12000 FEET
WITH NO SIGNIFICANT WEATHER AND/OR OBSTRUCTIONS TO VISIBILITY

IDZ012-014-180600-
SOUTHWEST IDAHO


CITY           SKY/WX    TMP DP  RH WIND       PRES   REMARKS
BOISE          RAIN      52  48  86 N16       29.84R FOG
CALDWELL       CLOUDY    52  39  62 NW16G23   29.86R
MOUNTAIN HOME  LGT RAIN  55  46  71 NW35G41   29.77R
$$

IDZ016-017-180600-
SOUTHCENTRAL IDAHO


CITY           SKY/WX    TMP DP  RH WIND       PRES   REMARKS
BURLEY         MOCLDY    61  29  29 S20       29.72F
JEROME         CLOUDY    63  31  30 SE10      29.71S
TWIN FALLS     CLOUDY    68  28  22 S22G30    29.70F
$$

IDZ019>023-180600-
SOUTHEAST IDAHO


CITY           SKY/WX    TMP DP  RH WIND       PRES   REMARKS
IDAHO FALLS    CLEAR     54  27  35 SE12      29.81F
POCATELLO      CLEAR     60  24  25 S23G32    29.77F
REXBURG        PTCLDY    53  25  33 S12       29.82F
$$

IDZ006-010-011-018-031-032-180600-
CENTRAL IDAHO MOUNTAINS


CITY           SKY/WX    TMP DP  RH WIND       PRES   REMARKS
MCCALL         LGT RAIN  42  38  85 VRB5      29.80R
HAILEY         PTCLDY    52  30  43 NW8       29.79F
STANLEY          N/A     42  32  67 NW6       29.83R
SALMON         CLOUDY    48  32  53 N7        29.67S
CHALLIS        CLOUDY    57  28  33 S8        29.72F
$$

IDZ002-004-006-007-026-180600-
NORTHERN IDAHO


CITY           SKY/WX    TMP DP  RH WIND       PRES   REMARKS
LEWISTON       LGT RAIN  50  46  86 SE6       29.81S
LOWELL           N/A     49  47  93 CALM      29.84R
COEUR D`ALENE  CLOUDY    46  45  93 S7        29.76S
MULLAN PASS    SNOW      32  32 100 VRB3      29.74F VSB 1/2
$$



USA.gov is the U.S. government's official web portal to all federal, state and local government web resources and services.